Location: Mannheim
(49.4880°N, 8.4650°E)
Time: 21:08:26
(UTC+02:00)

ISS - Pass Details

Date: 16 May 2024
Orbit: 411 x 418 km, 51.6° (Epoch: 30 May)

Event Time Altitude Azimuth Distance (km) Brightness Sun altitude
Rises 21:39:52 0° 253° (WSW) 2,368 0.6 -5.4°
Reaches altitude 10° 21:41:58 10° 254° (WSW) 1,504 -0.4 -5.6°
Maximum altitude 21:45:21 84° 344° (NNW) 428 -3.7 -6.1°
Drops below altitude 10° 21:48:44 10° 72° (ENE) 1,503 -1.2 -6.5°
Enters shadow 21:52:15 -5° 74° (ENE) 2,954 0.2 -6.9°
